Dewpoint
51 47 50 44 16 28 16 19 30 19 19 22 22 20 17 25 37 37 61 63 66 67 70 71 72 71 71 71 71 71 72 71 70 71 71 70 70 71 71 70 70 70 70 70 70 68 67 67 68
50 48 36 35 14 1 -1 25 19 19 18 16 16 19 35 45 55 59 59 64 66 67 69 71 71 71 71 71 71 71 72 72 70 71 71 70 70 71 71 71 70 70 70 70 68 67 67 68 69
45 46 32 28 26 3 5 22 19 17 14 8 11 18 37 51 56 59 63 66 67 67 68 70 71 71 71 71 71 71 72 72 70 71 70 70 71 70 71 70 70 70 70 68 67 67 67 68 68
38 40 31 24 12 22 21 20 18 15 11 11 9 32 55 60 59 61 65 66 66 67 68 70 71 71 71 71 71 71 71 71 71 71 70 70 71 71 70 70 69 69 69 68 67 67 68 68 67
31 33 23 22 20 21 19 19 18 10 13 12 15 42 55 61 63 64 64 65 65 67 68 69 70 71 71 71 71 71 71 71 71 71 70 69 71 69 69 69 69 69 69 68 68 68 68 67 67
29 27 21 13 19 21 23 21 17 13 13 12 8 45 56 62 61 62 64 65 66 67 68 69 69 70 71 71 71 71 70 70 70 70 69 68 67 67 67 68 68 69 68 67 68 68 67 67 66
31 29 23 23 24 21 19 19 17 14 13 9 11 42 55 61 61 63 64 65 66 67 67 68 69 69 70 70 70 70 69 70 70 69 68 66 66 66 67 68 68 68 67 67 68 67 66 66 65
32 29 26 25 21 18 20 17 17 15 12 8 18 45 48 60 63 64 64 65 66 66 67 67 68 69 69 70 69 69 69 69 69 68 67 66 66 66 66 67 68 68 67 67 67 66 65 65 64
24 22 21 21 20 19 19 16 15 7 8 8 14 27 40 63 63 63 62 63 64 65 65 65 67 67 68 69 69 69 69 68 68 67 67 66 65 66 67 66 68 67 66 67 66 66 66 64 64
21 20 21 21 20 17 17 7 8 7 15 17 27 31 34 37 40 44 46 52 58 63 63 64 65 66 67 67 68 68 68 68 67 67 67 66 66 66 66 66 67 66 66 66 65 66 65 63 62
18 18 17 14 16 9 7 6 12 9 20 29 30 30 30 31 33 34 36 38 40 53 63 64 64 65 66 65 67 67 67 66 66 66 66 67 67 67 66 67 66 65 65 65 65 65 63 62 61
5 6 11 9 7 1 1 5 17 27 27 28 28 27 28 28 30 31 32 35 36 39 42 58 64 65 66 65 66 67 66 66 66 66 66 66 66 65 65 65 65 63 63 64 64 64 63 62 60
4 9 12 9 5 -2 5 8 21 25 26 26 26 27 27 28 29 30 31 32 34 36 39 42 51 64 65 65 66 66 66 66 66 66 66 66 65 65 64 64 65 64 63 63 63 64 62 61 60
11 13 9 0 -1 2 20 24 23 25 26 27 26 26 27 28 28 29 30 31 32 35 37 41 45 61 64 64 66 66 66 66 66 66 66 65 65 65 64 62 63 65 64 63 63 63 61 60 59
14 10 4 1 1 -2 4 21 24 25 26 27 27 27 27 27 27 29 30 31 32 34 36 40 46 52 64 64 65 66 65 66 65 65 65 65 65 65 65 61 61 64 63 63 63 63 61 59 58
1 1 -3 2 3 2 -1 18 23 24 24 24 26 27 27 27 27 29 31 31 32 34 36 39 45 50 62 64 65 65 65 65 65 65 65 65 65 65 65 62 60 62 63 63 64 63 61 59 58
-0 -2 -2 -1 3 7 12 21 22 23 23 24 24 25 26 26 27 28 30 31 32 34 35 39 43 47 50 64 65 65 66 65 65 66 66 65 65 65 64 64 61 61 60 62 63 62 60 59 58
-0 -0 -0 -1 1 6 22 22 21 21 22 23 24 24 24 25 27 28 29 30 32 33 35 37 41 45 47 53 65 65 65 66 65 65 66 66 66 65 64 63 63 61 60 61 63 62 61 59 58
-1 -2 -3 -0 2 6 22 20 20 20 20 21 23 23 23 24 25 28 29 30 31 33 34 37 39 42 45 49 55 63 63 64 65 65 65 66 65 64 63 62 62 60 59 61 62 62 60 59 58
-4 -7 -10 1 7 3 19 16 17 18 19 21 22 22 22 22 24 26 27 29 31 31 33 35 38 41 44 47 49 55 63 64 64 65 65 65 65 64 63 62 62 61 59 60 62 62 59 58 58
-3 -5 -4 5 8 9 3 16 14 17 18 20 21 22 23 22 22 24 26 27 30 30 32 34 37 39 42 46 48 54 64 63 63 63 63 64 64 63 62 61 62 61 61 59 61 62 60 57 58
-3 -3 -2 3 8 9 5 5 13 14 16 19 20 21 21 17 20 22 23 26 28 30 32 34 36 38 41 43 46 48 55 61 62 62 63 64 64 63 62 61 61 62 61 60 60 62 60 58 57
-2 -0 1 4 6 11 11 6 13 13 15 17 19 20 20 14 14 18 20 23 28 30 30 32 35 37 39 41 44 46 49 57 62 62 62 62 63 62 61 61 56 61 62 61 61 61 60 59 58
0 4 8 12 13 8 7 7 10 14 17 18 20 21 19 15 11 14 17 21 25 27 28 31 34 36 37 39 41 44 45 49 57 61 61 62 62 62 61 59 56 60 63 62 61 61 60 59 59
2 11 4 -1 7 5 13 8 12 18 20 21 20 15 13 13 11 12 14 18 22 24 25 30 32 35 36 38 40 43 44 47 51 58 61 61 61 61 61 61 59 58 61 62 62 62 61 60 59
5 10 9 2 4 7 10 5 9 19 23 17 13 13 14 12 12 13 14 16 18 22 23 27 31 34 36 37 39 41 44 45 50 53 61 61 60 61 61 61 60 58 59 61 61 61 61 61 60
6 6 11 14 12 3 8 6 13 7 11 15 14 13 14 14 14 16 17 16 18 19 23 25 28 31 34 36 38 40 42 43 46 49 54 61 61 61 61 61 60 59 57 59 58 57 59 61 60
9 11 8 11 3 -0 6 5 6 8 11 13 13 15 14 15 16 16 17 17 18 19 21 24 25 29 32 35 37 39 40 42 44 47 50 53 61 62 61 60 60 58 57 57 57 55 55 58 60
5 6 11 12 7 4 -0 2 11 9 12 14 14 14 15 15 18 18 18 19 18 19 19 22 24 26 29 33 36 38 39 40 42 43 46 49 58 61 61 60 59 58 57 56 57 56 56 56 58
7 6 10 3 -2 5 3 2 10 11 13 13 15 15 16 17 19 18 19 20 19 19 19 20 22 24 27 30 35 36 38 39 40 41 42 46 50 57 62 61 59 59 58 57 57 57 56 58 58
Wind_Speed
6 4 2 4 2 3 3 1 2 13 12 7 14 13 15 9 7 5 4 13 20 24 19 19 20 18 16 16 15 16 19 21 22 21 20 23 22 19 18 20 21 23 23 24 27 27 29 28 26
3 1 5 4 2 4 1 2 6 10 17 23 14 7 8 2 2 2 8 8 16 23 19 18 20 18 15 15 14 14 16 19 21 22 22 23 23 20 20 20 22 24 23 25 26 27 28 27 26
2 4 3 4 4 5 2 1 14 15 19 17 10 4 4 3 3 6 4 14 13 14 14 16 18 17 16 14 13 13 14 18 21 21 23 23 23 23 22 21 22 24 23 24 26 28 28 28 26
2 4 5 2 7 4 3 11 11 18 10 19 11 5 3 9 3 5 12 16 16 12 12 16 18 16 16 14 13 13 14 17 20 20 24 24 23 22 22 21 22 23 22 24 26 27 27 26 26
5 4 2 0 4 3 4 10 10 13 21 21 18 12 3 8 16 12 13 12 18 13 12 13 16 17 16 15 14 14 15 16 19 22 24 26 24 24 22 22 21 22 22 24 26 26 26 26 25
4 3 1 5 4 5 7 6 15 12 17 22 21 10 6 2 7 7 10 11 10 11 10 10 13 14 14 16 14 14 15 16 19 21 22 26 25 21 16 19 22 22 24 26 25 25 26 26 26
5 4 1 3 7 5 2 12 15 13 17 16 20 11 3 8 5 7 10 11 11 11 10 9 9 10 13 14 16 15 15 17 19 21 21 25 29 25 19 19 22 23 25 26 25 24 26 26 25
6 4 1 1 4 5 3 10 10 11 8 18 24 12 9 1 7 10 10 9 8 8 8 9 8 8 10 10 15 16 16 17 18 20 22 26 27 26 23 22 22 23 25 26 25 25 25 25 25
3 3 2 3 3 5 7 11 8 18 21 15 20 21 23 13 8 6 5 4 5 7 9 10 9 8 10 10 11 14 16 17 17 18 23 26 21 21 23 24 24 24 25 27 23 24 24 24 23
3 4 7 5 4 7 9 14 7 13 23 19 32 39 32 29 28 27 25 23 23 10 6 8 9 9 10 11 11 11 12 13 12 11 16 16 19 19 15 15 23 22 24 24 23 25 26 20 16
2 2 2 1 3 4 3 27 19 5 19 16 18 24 29 31 31 29 25 21 21 23 12 10 9 8 9 11 11 10 9 10 11 14 16 15 15 15 13 11 18 17 21 19 18 22 16 16 14
3 4 5 7 11 8 3 10 30 29 11 15 18 20 26 32 28 27 27 26 26 25 23 20 12 11 11 11 11 12 11 10 11 13 16 18 17 16 14 10 15 17 16 16 14 14 15 15 14
1 4 8 9 10 16 25 21 20 25 17 16 22 28 27 26 27 24 23 22 24 28 26 26 25 14 13 14 12 14 13 13 12 14 14 16 17 16 13 12 11 13 13 14 13 15 16 16 15
4 7 4 11 12 16 16 17 8 20 17 18 23 24 26 27 28 26 29 29 28 26 28 26 23 21 17 17 14 14 13 14 14 14 15 16 16 19 17 14 12 13 13 13 14 15 16 15 16
5 4 3 19 16 8 3 13 17 17 17 21 22 22 24 27 28 28 26 26 26 25 25 25 25 29 21 20 15 14 13 15 16 16 16 17 17 19 19 18 15 12 14 13 13 15 14 16 13
9 7 11 12 19 10 7 0 15 17 16 21 23 21 22 24 26 25 26 26 26 27 27 26 25 23 18 19 14 14 13 15 15 15 17 19 17 19 16 20 17 11 12 12 14 17 16 15 15
17 11 16 10 18 11 10 3 15 17 18 20 21 23 22 23 26 26 26 25 26 25 26 26 27 26 27 14 14 13 12 17 16 15 16 20 20 17 20 15 22 24 19 15 14 17 20 17 14
15 11 14 13 15 13 15 11 13 17 20 20 20 22 24 25 25 26 28 27 25 25 26 25 24 25 28 23 12 13 13 14 16 17 17 19 17 21 19 14 15 27 25 22 15 19 16 18 19
8 13 19 13 8 14 10 10 14 16 20 23 23 23 25 26 23 23 25 28 27 27 29 29 29 29 25 22 20 18 18 18 15 17 17 18 17 19 20 17 19 20 20 14 17 18 21 13 17
17 21 23 13 18 13 4 9 11 19 20 20 22 23 25 27 29 30 30 30 29 29 28 28 29 28 24 21 23 16 17 14 16 11 17 18 21 21 21 20 19 24 25 17 16 17 16 9 17
14 14 17 22 23 18 18 6 7 14 18 19 21 21 24 27 29 30 32 31 29 30 31 28 27 27 24 26 22 23 10 8 11 17 17 20 23 24 23 23 24 28 27 27 19 17 17 16 13
18 15 22 24 15 9 7 8 12 16 18 23 25 26 26 28 27 27 30 31 30 28 27 28 27 27 24 26 23 23 17 12 14 15 12 17 24 25 24 23 20 19 22 30 30 21 18 16 21
12 25 28 29 24 11 15 4 12 14 23 27 27 27 29 27 27 28 28 29 27 27 27 27 26 27 26 25 23 20 19 16 14 14 14 19 20 26 27 24 16 13 18 19 23 25 22 18 20
13 18 25 2 3 4 12 9 16 17 22 25 26 26 26 27 27 27 25 27 27 28 27 26 27 27 27 26 25 23 22 21 12 16 17 18 18 21 24 25 23 17 17 21 23 23 25 21 19
31 21 12 7 3 6 16 18 10 12 15 17 21 24 23 24 25 26 29 29 31 31 30 27 29 28 28 27 26 24 22 21 15 13 21 18 17 18 25 26 25 20 18 18 21 22 23 23 21
19 7 5 9 8 5 12 8 10 16 13 19 18 18 23 26 25 26 27 26 27 29 30 29 29 28 27 27 25 23 20 19 15 15 12 21 21 23 21 25 25 27 20 19 19 20 21 20 20
13 14 15 6 8 6 5 12 7 22 21 21 21 24 23 25 28 27 26 26 27 28 29 29 29 28 26 26 24 22 23 22 21 20 15 13 22 17 21 22 23 25 24 21 22 20 19 17 20
3 12 9 9 8 3 5 5 9 23 23 22 24 24 25 23 24 27 26 26 26 27 25 27 27 27 27 26 24 22 20 22 21 18 17 14 13 20 22 24 26 24 25 23 24 22 24 24 21
11 10 5 3 6 5 4 3 6 16 18 19 21 21 23 24 24 25 25 25 24 24 26 26 27 28 28 27 24 22 21 22 21 20 19 19 17 21 24 25 26 27 29 27 26 27 26 30 26
6 7 5 5 7 4 1 3 5 12 16 17 19 20 21 22 23 24 24 24 25 25 26 27 27 27 27 27 25 24 22 23 22 22 20 19 18 12 14 24 28 28 28 29 30 30 29 31 32
Wind_Direction
346 348 46 37 139 50 264 339 274 335 334 278 283 265 248 245 215 239 333 160 138 146 154 158 156 160 161 157 152 149 150 153 152 148 149 148 144 148 151 138 131 133 128 125 122 121 120 119 116
349 44 47 89 111 212 272 260 338 323 307 310 311 307 239 224 99 268 116 186 153 147 152 157 157 158 160 160 159 155 152 154 154 152 150 149 147 151 150 139 132 130 131 127 124 124 123 119 112
71 40 68 95 118 214 214 288 320 329 328 341 326 283 270 2 20 160 93 127 126 133 141 152 153 156 161 166 163 162 157 154 157 155 152 152 152 156 145 141 135 132 133 130 132 130 126 118 114
63 27 54 76 241 256 260 324 335 341 339 344 330 313 34 4 94 105 120 122 119 119 131 150 151 159 165 169 169 165 165 157 158 160 156 157 158 157 145 143 141 136 137 134 135 130 125 118 116
45 59 86 281 257 265 295 311 339 351 349 334 345 335 359 29 28 74 106 116 135 134 138 151 159 162 169 174 175 169 169 165 158 166 166 163 158 155 145 150 146 140 141 134 134 129 126 122 118
61 74 27 265 304 315 299 329 345 2 331 329 348 341 55 73 75 88 106 111 109 129 140 152 168 169 173 178 179 176 171 168 166 170 170 167 151 144 157 160 144 141 136 136 137 129 128 125 123
97 83 235 302 318 333 297 7 1 329 330 347 335 357 105 55 103 108 112 109 122 135 151 157 173 178 181 181 182 181 177 175 173 172 171 162 145 142 175 181 146 138 137 141 138 131 131 129 125
105 96 82 300 318 296 334 0 308 349 26 344 353 360 349 298 106 89 82 104 123 137 160 166 171 173 181 193 184 186 184 182 183 172 166 152 138 155 189 182 147 140 144 144 137 134 134 130 126
109 81 241 256 246 294 340 349 332 42 39 18 21 24 330 1 35 72 104 112 143 157 181 190 189 187 180 182 192 188 189 184 184 171 156 149 151 169 197 186 147 146 149 144 135 132 130 127 124
100 156 214 226 267 320 349 31 345 63 36 6 7 3 19 31 31 35 23 8 353 324 235 208 200 202 187 189 186 188 188 180 178 163 158 150 157 171 194 196 153 148 148 141 136 133 128 124 124
74 206 235 329 322 354 61 64 43 55 45 25 14 4 9 23 24 23 16 11 348 334 310 266 212 205 208 204 190 179 177 170 159 149 143 145 144 156 172 165 149 148 147 142 132 133 136 135 134
347 342 12 338 7 17 43 82 61 58 48 22 27 21 17 21 17 13 6 1 356 349 347 339 280 220 205 218 199 189 169 161 155 153 145 151 156 154 147 137 147 157 159 147 143 143 140 133 135
103 347 328 358 41 30 65 64 83 46 34 25 20 22 21 17 12 9 2 359 358 354 341 336 328 251 225 212 203 201 184 175 168 161 159 156 160 158 150 142 143 159 161 154 145 142 140 130 131
300 308 10 36 49 54 77 33 85 5 19 28 33 22 12 14 8 3 4 358 356 348 341 331 320 284 232 227 199 201 187 181 174 174 170 168 160 163 160 160 149 148 159 156 148 148 143 136 137
311 321 32 34 5 28 270 30 29 5 16 24 27 25 15 7 8 7 357 354 350 344 336 340 335 334 233 228 205 206 185 183 184 183 181 175 173 173 173 173 164 153 142 135 135 139 137 133 141
14 43 3 48 32 343 345 122 14 15 31 23 17 20 18 11 3 1 358 355 350 345 344 343 342 330 293 221 220 209 196 192 189 189 189 188 179 185 162 165 183 174 155 148 152 154 145 142 144
30 333 339 331 35 5 24 124 19 18 32 28 17 12 13 8 6 359 0 358 353 348 344 350 352 349 333 250 215 211 199 200 190 197 188 194 187 179 184 179 173 181 178 180 178 157 152 147 141
330 334 321 312 359 15 69 64 30 24 29 28 17 12 9 12 3 355 354 357 356 353 351 350 353 351 342 338 211 206 202 206 194 197 195 184 183 180 171 147 161 174 175 184 190 152 151 152 143
330 319 311 293 16 9 91 74 40 25 26 23 18 11 8 4 354 357 358 352 355 359 356 356 353 350 349 342 336 216 214 203 199 198 198 175 177 164 161 154 149 163 182 181 196 145 141 141 133
354 325 312 298 345 349 137 88 47 42 29 20 14 12 6 360 0 357 357 356 355 354 354 352 354 348 346 340 324 304 201 206 208 196 193 189 173 164 154 163 164 163 178 200 196 153 153 144 158
340 298 318 296 317 299 258 175 48 26 26 18 18 13 8 2 359 357 355 354 353 355 351 350 349 347 345 340 336 336 177 170 182 197 192 193 178 170 166 174 180 170 169 187 193 176 161 161 171
328 306 300 285 297 279 257 215 37 12 11 15 11 9 3 4 360 359 359 354 353 349 346 347 349 347 347 345 341 331 324 205 204 196 199 192 186 182 180 180 189 190 181 183 184 178 171 164 177
277 303 293 282 274 264 258 270 358 9 10 8 3 2 0 359 1 1 0 355 351 350 349 346 348 348 349 347 343 338 340 318 196 176 197 201 190 184 189 188 187 183 182 187 185 177 170 176 174
298 314 305 292 110 236 261 168 37 15 4 357 358 355 355 355 357 357 359 359 352 352 354 350 348 350 349 348 345 343 344 329 313 181 197 202 199 191 189 193 195 193 191 191 184 183 172 176 188
351 2 346 346 34 49 49 75 68 29 12 5 354 353 358 356 357 356 357 354 355 353 352 354 350 348 348 347 346 339 345 325 328 304 198 193 207 195 189 189 194 193 191 186 182 180 178 180 188
315 328 310 312 344 33 36 75 33 9 9 9 356 359 358 356 353 353 349 349 350 353 351 353 352 348 349 347 341 344 334 336 325 310 261 194 201 210 195 192 193 196 192 183 180 183 178 176 195
324 353 295 269 83 69 63 14 351 4 6 1 353 358 354 357 350 344 342 345 345 347 350 348 350 349 350 344 342 343 345 344 333 321 316 243 199 210 208 203 201 198 201 192 191 194 185 185 202
304 305 354 344 351 56 85 49 360 349 351 349 353 351 347 347 343 346 344 342 341 343 343 345 349 351 349 346 346 342 345 339 334 328 329 326 227 203 206 203 203 201 200 199 200 203 199 197 208
356 356 344 285 21 357 11 345 326 348 343 342 342 340 342 341 341 340 342 340 338 341 345 346 347 348 352 350 342 342 344 343 344 342 342 331 304 224 204 203 203 204 204 203 202 206 204 206 211
16 346 329 10 351 18 71 236 327 346 340 341 334 334 337 337 336 340 341 340 338 341 346 345 343 347 352 348 342 345 346 349 348 347 342 334 317 337 237 205 204 202 204 206 209 208 209 206 209